Weather History for Martinsburg, WV

Change the Weather History Date:

Wednesday, February 13, 2013

  Actual Average Record
Temperature  
Mean Temperature 36 °F 33 °F  
Max Temperature 42 °F 43 °F 68 °F (1949)
Min Temperature 29 °F 24 °F -5 °F (1983)
Degree Days  
Heating Degree Days 29 32  
Month to date heating degree days 411 424  
Since 1 July heating degree days 3187 3507  
Cooling Degree Days 0 0  
Month to date cooling degree days 0 0  
Year to date cooling degree days 0 0  
Moisture  
Dew Point 28 °F    
Average Humidity 73    
Maximum Humidity 96    
Minimum Humidity 49    
Precipitation  
Precipitation 0.11 in 0.08 in 1.66 in (1972)
Month to date precipitation 0.32 1.07  
Year to date precipitation 3.72 3.51  
Sea Level Pressure  
Sea Level Pressure 29.78 in    
Wind  
Wind Speed 3 mph (North)    
Max Wind Speed 12 mph    
Max Gust Speed 16 mph    
Visibility 6 miles    
Events Snow    
T = Trace of Precipitation, MM = Missing Value Source: NWS Daily Summary

Daily Weather History Graph

Daily Weather History Graph

Search for Another Location

Airport:

Trip Planner

Search our weather history database for the weather conditions in past years. The results will help you decide how hot, cold, wet, or windy it might be!

Date:

Astronomy

Feb. 13, 2013 Rise Set
Actual Time 7:06 AM EST 5:46 PM EST
Civil Twilight 6:38 AM EST 6:14 PM EST
Nautical Twilight 6:07 AM EST 6:45 PM EST
Astronomical Twilight 5:35 AM EST 7:17 PM EST
Moon 8:35 AM EST (2/13) 9:45 PM EST (2/13)
Length of Visible Light 11h 35m
Length of Day
10h 40m
Waxing Crescent, 13% of the Moon is Illuminated
Feb 13
Waxing Crescent
Feb 17
First Quarter
Feb 25
Full
Mar 4
Last Quarter
Mar 11
New

Hourly Weather History & Observations

Time (EST) Temp. Windchill Dew Point Humidity Pressure Visibility Wind Dir Wind Speed Gust Speed Precip Events Conditions
12:53 AM 35.1 °F - 24.1 °F 64% 29.95 in 10.0 mi Calm Calm - N/A   Clear
1:53 AM 32.0 °F - 23.0 °F 69% 29.93 in 10.0 mi Calm Calm - N/A   Clear
2:53 AM 30.9 °F - 23.0 °F 72% 29.91 in 10.0 mi Calm Calm - N/A   Clear
3:53 AM 28.9 °F - 23.0 °F 78% 29.90 in 10.0 mi Calm Calm - N/A   Clear
4:53 AM 30.9 °F 26.2 °F 24.1 °F 76% 29.90 in 10.0 mi North 4.6 mph - N/A   Clear
5:53 AM 30.0 °F - 23.0 °F 75% 29.89 in 9.0 mi Calm Calm - N/A   Clear
6:53 AM 28.9 °F - 23.0 °F 78% 29.88 in 8.0 mi Calm Calm - N/A   Mostly Cloudy
7:53 AM 30.9 °F - 24.1 °F 76% 29.87 in 7.0 mi Calm Calm - N/A   Overcast
8:53 AM 34.0 °F - 25.0 °F 70% 29.87 in 7.0 mi Calm Calm - N/A   Overcast
9:53 AM 37.9 °F - 25.0 °F 60% 29.85 in 10.0 mi Calm Calm - N/A   Overcast
10:53 AM 39.9 °F 36.7 °F 26.1 °F 58% 29.83 in 10.0 mi NE 4.6 mph - N/A   Overcast
11:53 AM 42.1 °F 39.2 °F 25.0 °F 51% 29.78 in 10.0 mi Variable 4.6 mph - N/A   Scattered Clouds
12:53 PM 41.0 °F 38.0 °F 26.1 °F 55% 29.77 in 10.0 mi East 4.6 mph - N/A   Overcast
1:53 PM 41.0 °F 38.0 °F 26.1 °F 55% 29.74 in 10.0 mi NNE 4.6 mph - N/A   Overcast
2:53 PM 41.0 °F 38.0 °F 27.0 °F 57% 29.70 in 10.0 mi NE 4.6 mph - 0.00 in   Overcast
3:53 PM 41.0 °F 39.0 °F 27.0 °F 57% 29.69 in 10.0 mi Variable 3.5 mph - N/A   Overcast
4:53 PM 39.9 °F 33.9 °F 28.9 °F 65% 29.68 in 8.0 mi NNE 9.2 mph - N/A   Overcast
5:53 PM 37.0 °F 31.0 °F 32.0 °F 82% 29.69 in 5.0 mi North 8.1 mph - 0.00 in Snow Light Snow
6:22 PM 35.6 °F 29.2 °F 32.0 °F 87% 29.69 in 3.0 mi North 8.1 mph - 0.01 in   Overcast
6:43 PM 35.6 °F 29.9 °F 32.0 °F 87% 29.71 in 2.5 mi North 6.9 mph - 0.01 in Snow Light Snow
6:53 PM 35.1 °F 30.1 °F 32.0 °F 89% 29.72 in 2.0 mi North 5.8 mph - 0.02 in Snow Light Snow
7:01 PM 35.6 °F 29.9 °F 32.0 °F 87% 29.71 in 1.8 mi North 6.9 mph - 0.00 in Snow Light Snow
7:19 PM 33.8 °F 28.6 °F 30.2 °F 87% 29.72 in 1.2 mi North 5.8 mph - 0.02 in Snow Light Snow
7:53 PM 34.0 °F 28.8 °F 30.9 °F 89% 29.74 in 1.2 mi North 5.8 mph - 0.04 in Snow Light Snow
8:00 PM 33.8 °F 27.7 °F 30.2 °F 87% 29.73 in 1.2 mi North 6.9 mph - 0.00 in Snow Light Snow
8:40 PM 33.8 °F 28.6 °F 30.2 °F 87% 29.74 in 1.0 mi NNW 5.8 mph - 0.03 in Snow Light Snow
8:51 PM 33.8 °F 29.6 °F 32.0 °F 93% 29.74 in 1.5 mi NNW 4.6 mph - 0.03 in Snow Light Snow
8:53 PM 34.0 °F 29.8 °F 32.0 °F 92% 29.76 in 1.8 mi NNW 4.6 mph - 0.03 in Snow Light Snow
9:00 PM 33.8 °F 29.6 °F 32.0 °F 93% 29.74 in 1.8 mi NNW 4.6 mph - 0.01 in Snow Light Snow
9:08 PM 33.8 °F 30.8 °F 32.0 °F 93% 29.74 in 1.5 mi NNW 3.5 mph - 0.01 in Snow Light Snow
9:23 PM 33.8 °F 30.8 °F 32.0 °F 93% 29.75 in 2.0 mi North 3.5 mph - 0.02 in Snow Light Snow
9:53 PM 34.0 °F - 32.0 °F 92% 29.76 in 2.5 mi Calm Calm - 0.02 in   Overcast
10:30 PM 33.8 °F - 30.2 °F 87% 29.76 in 1.2 mi Calm Calm - N/A   Mostly Cloudy
10:47 PM 33.8 °F 30.8 °F 32.0 °F 93% 29.77 in 3.0 mi NW 3.5 mph - N/A   Scattered Clouds
10:53 PM 35.1 °F - 32.0 °F 89% 29.78 in 6.0 mi Calm Calm - N/A   Mostly Cloudy
11:53 PM 34.0 °F 31.0 °F 32.0 °F 92% 29.78 in 4.0 mi SSW 3.5 mph - N/A   Overcast